![]() |
EMODnet Physics ERDDAP
Easier access to scientific data |
log in|
Brought to you by EMODnet Physics |
| Dataset Title: | NDBC - Collection of dew point temperature (DEWT) TimeSeries - IN SITU MultiPointTimeSeriesObservation
|
| Institution: | NDBC (Dataset ID: TS_DEWT_NDBC) |
| Information: | Summary
| License
| FGDC
| ISO 19115
| Metadata
| Background
| Subset
| Data Access Form
| Make a graph
|
| Name | Last modified | Size | Description | |
|---|---|---|---|---|
| Parent Directory | - | - | ||
| 42003_TS_DEWT_012001.nc | 02-Jan-2025 04:30 | 1655459 | ||
| 42003_TS_DEWT_012002.nc | 02-Jan-2025 04:32 | 4823928 | ||
| 42003_TS_DEWT_012003.nc | 02-Jan-2025 04:34 | 1818602 | ||
| 42003_TS_DEWT_012004.nc | 02-Jan-2025 04:35 | 5565394 | ||
| 42003_TS_DEWT_012005.nc | 02-Jan-2025 04:37 | 1673270 | ||
| 42003_TS_DEWT_012006.nc | 02-Jan-2025 04:39 | 1640429 | ||
| 42003_TS_DEWT_012007.nc | 02-Jan-2025 04:41 | 5591011 | ||
| 42003_TS_DEWT_012008.nc | 02-Jan-2025 04:44 | 651972 | ||
| 42003_TS_DEWT_012009.nc | 02-Jan-2025 04:45 | 1794165 | ||
| 42003_TS_DEWT_012011.nc | 02-Jan-2025 04:49 | 5808930 | ||
| 42003_TS_DEWT_012015.nc | 18-Jan-2026 16:43 | 4566948 | ||
| 42003_TS_DEWT_012016.nc | 18-Jan-2026 16:46 | 430755 | ||
| 42003_TS_DEWT_012017.nc | 18-Jan-2026 16:49 | 1473297 | ||
| 42003_TS_DEWT_012019.nc | 18-Jan-2026 16:57 | 1624274 | ||
| 42003_TS_DEWT_012020.nc | 18-Jan-2026 17:02 | 1624743 | ||
| 42003_TS_DEWT_012021.nc | 18-Jan-2026 17:08 | 915306 | ||
| 42003_TS_DEWT_022001.nc | 02-Jan-2025 04:30 | 1460865 | ||
| 42003_TS_DEWT_022002.nc | 02-Jan-2025 04:32 | 1626692 | ||
| 42003_TS_DEWT_022004.nc | 02-Jan-2025 04:36 | 1625733 | ||
| 42003_TS_DEWT_022005.nc | 02-Jan-2025 04:38 | 1626305 | ||
| 42003_TS_DEWT_022006.nc | 02-Jan-2025 04:40 | 1625445 | ||
| 42003_TS_DEWT_022007.nc | 02-Jan-2025 04:42 | 1461210 | ||
| 42003_TS_DEWT_022008.nc | 02-Jan-2025 04:44 | 1626768 | ||
| 42003_TS_DEWT_022009.nc | 02-Jan-2025 04:45 | 1626534 | ||
| 42003_TS_DEWT_022011.nc | 02-Jan-2025 04:49 | 1625316 | ||
| 42003_TS_DEWT_022015.nc | 18-Jan-2026 16:44 | 1626722 | ||
| 42003_TS_DEWT_022016.nc | 18-Jan-2026 16:47 | 1626117 | ||
| 42003_TS_DEWT_022017.nc | 18-Jan-2026 16:50 | 1626898 | ||
| 42003_TS_DEWT_022018.nc | 18-Jan-2026 16:52 | 1626964 | ||
| 42003_TS_DEWT_022019.nc | 18-Jan-2026 16:58 | 428869 | ||
| 42003_TS_DEWT_022020.nc | 18-Jan-2026 17:02 | 1464041 | ||
| 42003_TS_DEWT_022021.nc | 18-Jan-2026 17:08 | 1472341 | ||
| 42003_TS_DEWT_032001.nc | 02-Jan-2025 04:30 | 1469734 | ||
| 42003_TS_DEWT_032002.nc | 02-Jan-2025 04:32 | 1464404 | ||
| 42003_TS_DEWT_032004.nc | 02-Jan-2025 04:36 | 1469768 | ||
| 42003_TS_DEWT_032005.nc | 02-Jan-2025 04:38 | 1473361 | ||
| 42003_TS_DEWT_032006.nc | 02-Jan-2025 04:40 | 1469946 | ||
| 42003_TS_DEWT_032007.nc | 02-Jan-2025 04:42 | 1469521 | ||
| 42003_TS_DEWT_032008.nc | 02-Jan-2025 04:44 | 1468373 | ||
| 42003_TS_DEWT_032009.nc | 02-Jan-2025 04:45 | 436103 | ||
| 42003_TS_DEWT_032011.nc | 02-Jan-2025 04:49 | 1469649 | ||
| 42003_TS_DEWT_032015.nc | 18-Jan-2026 16:44 | 1468746 | ||
| 42003_TS_DEWT_032016.nc | 18-Jan-2026 16:47 | 1469745 | ||
| 42003_TS_DEWT_032017.nc | 18-Jan-2026 16:50 | 1473198 | ||
| 42003_TS_DEWT_032018.nc | 18-Jan-2026 16:52 | 1468769 | ||
| 42003_TS_DEWT_032019.nc | 18-Jan-2026 16:58 | 1469837 | ||
| 42003_TS_DEWT_032020.nc | 18-Jan-2026 17:03 | 1469417 | ||
| 42003_TS_DEWT_032021.nc | 18-Jan-2026 17:09 | 429862 | ||
| 42003_TS_DEWT_042001.nc | 02-Jan-2025 04:30 | 1463904 | ||
| 42003_TS_DEWT_042002.nc | 02-Jan-2025 04:32 | 1474780 | ||
| 42003_TS_DEWT_042004.nc | 02-Jan-2025 04:36 | 1626525 | ||
| 42003_TS_DEWT_042005.nc | 02-Jan-2025 04:38 | 1473067 | ||
| 42003_TS_DEWT_042006.nc | 02-Jan-2025 04:40 | 1474798 | ||
| 42003_TS_DEWT_042007.nc | 02-Jan-2025 04:42 | 1626812 | ||
| 42003_TS_DEWT_042008.nc | 02-Jan-2025 04:44 | 1626575 | ||
| 42003_TS_DEWT_042009.nc | 02-Jan-2025 04:46 | 1626733 | ||
| 42003_TS_DEWT_042011.nc | 02-Jan-2025 04:50 | 1475750 | ||
| 42003_TS_DEWT_042015.nc | 18-Jan-2026 16:44 | 1469712 | ||
| 42003_TS_DEWT_042016.nc | 18-Jan-2026 16:47 | 1626677 | ||
| 42003_TS_DEWT_042017.nc | 18-Jan-2026 16:50 | 1626860 | ||
| 42003_TS_DEWT_042018.nc | 18-Jan-2026 16:52 | 1626638 | ||
| 42003_TS_DEWT_042021.nc | 18-Jan-2026 17:09 | 1626875 | ||
| 42003_TS_DEWT_052001.nc | 02-Jan-2025 04:30 | 1159265 | ||
| 42003_TS_DEWT_052002.nc | 02-Jan-2025 04:33 | 1626648 | ||
| 42003_TS_DEWT_052004.nc | 02-Jan-2025 04:36 | 1626972 | ||
| 42003_TS_DEWT_052005.nc | 02-Jan-2025 04:38 | 429420 | ||
| 42003_TS_DEWT_052006.nc | 02-Jan-2025 04:40 | 429552 | ||
| 42003_TS_DEWT_052007.nc | 02-Jan-2025 04:42 | 1466209 | ||
| 42003_TS_DEWT_052008.nc | 02-Jan-2025 04:44 | 1476329 | ||
| 42003_TS_DEWT_052009.nc | 02-Jan-2025 04:46 | 1470278 | ||
| 42003_TS_DEWT_052010.nc | 02-Jan-2025 04:48 | 1474227 | ||
| 42003_TS_DEWT_052011.nc | 02-Jan-2025 04:50 | 1477061 | ||
| 42003_TS_DEWT_052015.nc | 18-Jan-2026 16:44 | 1474129 | ||
| 42003_TS_DEWT_052016.nc | 18-Jan-2026 16:47 | 1477017 | ||
| 42003_TS_DEWT_052017.nc | 18-Jan-2026 16:51 | 1477078 | ||
| 42003_TS_DEWT_052018.nc | 18-Jan-2026 16:53 | 1473208 | ||
| 42003_TS_DEWT_052021.nc | 18-Jan-2026 17:10 | 1476073 | ||
| 42003_TS_DEWT_062000.nc | 02-Jan-2025 04:29 | 1476805 | ||
| 42003_TS_DEWT_062001.nc | 02-Jan-2025 04:31 | 1476830 | ||
| 42003_TS_DEWT_062002.nc | 02-Jan-2025 04:33 | 1477039 | ||
| 42003_TS_DEWT_062003.nc | 02-Jan-2025 04:34 | 1477052 | ||
| 42003_TS_DEWT_062004.nc | 02-Jan-2025 04:36 | 1476927 | ||
| 42003_TS_DEWT_062005.nc | 02-Jan-2025 04:38 | 1477003 | ||
| 42003_TS_DEWT_062006.nc | 02-Jan-2025 04:40 | 1476322 | ||
| 42003_TS_DEWT_062007.nc | 02-Jan-2025 04:42 | 429663 | ||
| 42003_TS_DEWT_062008.nc | 02-Jan-2025 04:44 | 429911 | ||
| 42003_TS_DEWT_062009.nc | 02-Jan-2025 04:46 | 1460981 | ||
| 42003_TS_DEWT_062010.nc | 02-Jan-2025 04:48 | 1477985 | ||
| 42003_TS_DEWT_062011.nc | 02-Jan-2025 04:50 | 1466274 | ||
| 42003_TS_DEWT_062015.nc | 18-Jan-2026 16:45 | 1626891 | ||
| 42003_TS_DEWT_062016.nc | 18-Jan-2026 16:48 | 1626914 | ||
| 42003_TS_DEWT_062017.nc | 18-Jan-2026 16:51 | 593113 | ||
| 42003_TS_DEWT_062018.nc | 18-Jan-2026 16:53 | 1626276 | ||
| 42003_TS_DEWT_062021.nc | 18-Jan-2026 17:10 | 1626919 | ||
| 42003_TS_DEWT_072000.nc | 02-Jan-2025 04:29 | 1475419 | ||
| 42003_TS_DEWT_072001.nc | 02-Jan-2025 04:31 | 1626516 | ||
| 42003_TS_DEWT_072002.nc | 02-Jan-2025 04:33 | 1625927 | ||
| 42003_TS_DEWT_072003.nc | 02-Jan-2025 04:34 | 1626515 | ||
| 42003_TS_DEWT_072004.nc | 02-Jan-2025 04:36 | 1626856 | ||
| 42003_TS_DEWT_072005.nc | 02-Jan-2025 04:38 | 1626934 | ||
| 42003_TS_DEWT_072006.nc | 02-Jan-2025 04:40 | 1624473 | ||
| 42003_TS_DEWT_072007.nc | 02-Jan-2025 04:42 | 1626859 | ||
| 42003_TS_DEWT_072008.nc | 02-Jan-2025 04:45 | 1626829 | ||
| 42003_TS_DEWT_072009.nc | 02-Jan-2025 04:46 | 426088 | ||
| 42003_TS_DEWT_072010.nc | 02-Jan-2025 04:48 | 1155529 | ||
| 42003_TS_DEWT_072011.nc | 02-Jan-2025 04:50 | 1471446 | ||
| 42003_TS_DEWT_072015.nc | 18-Jan-2026 16:45 | 1466917 | ||
| 42003_TS_DEWT_072016.nc | 18-Jan-2026 16:48 | 1476691 | ||
| 42003_TS_DEWT_072018.nc | 18-Jan-2026 16:54 | 1476217 | ||
| 42003_TS_DEWT_072019.nc | 18-Jan-2026 16:59 | 1475788 | ||
| 42003_TS_DEWT_072021.nc | 18-Jan-2026 17:11 | 1476676 | ||
| 42003_TS_DEWT_082000.nc | 02-Jan-2025 04:29 | 1476367 | ||
| 42003_TS_DEWT_082001.nc | 02-Jan-2025 04:31 | 1476417 | ||
| 42003_TS_DEWT_082002.nc | 02-Jan-2025 04:33 | 1476721 | ||
| 42003_TS_DEWT_082003.nc | 02-Jan-2025 04:34 | 1477039 | ||
| 42003_TS_DEWT_082004.nc | 02-Jan-2025 04:37 | 1476971 | ||
| 42003_TS_DEWT_082005.nc | 02-Jan-2025 04:39 | 1476403 | ||
| 42003_TS_DEWT_082006.nc | 02-Jan-2025 04:41 | 1477006 | ||
| 42003_TS_DEWT_082007.nc | 02-Jan-2025 04:43 | 1476800 | ||
| 42003_TS_DEWT_082008.nc | 02-Jan-2025 04:45 | 1477046 | ||
| 42003_TS_DEWT_082009.nc | 02-Jan-2025 04:46 | 1476100 | ||
| 42003_TS_DEWT_082010.nc | 02-Jan-2025 04:48 | 429575 | ||
| 42003_TS_DEWT_082011.nc | 02-Jan-2025 04:50 | 1477007 | ||
| 42003_TS_DEWT_082015.nc | 18-Jan-2026 16:45 | 1476282 | ||
| 42003_TS_DEWT_082016.nc | 18-Jan-2026 16:48 | 1626777 | ||
| 42003_TS_DEWT_082018.nc | 18-Jan-2026 16:54 | 1626476 | ||
| 42003_TS_DEWT_082019.nc | 18-Jan-2026 16:59 | 1625819 | ||
| 42003_TS_DEWT_082021.nc | 18-Jan-2026 17:11 | 1626915 | ||
| 42003_TS_DEWT_082022.nc | 18-Jan-2026 17:14 | 1626338 | ||
| 42003_TS_DEWT_092000.nc | 02-Jan-2025 04:29 | 1626530 | ||
| 42003_TS_DEWT_092001.nc | 02-Jan-2025 04:31 | 1470240 | ||
| 42003_TS_DEWT_092002.nc | 02-Jan-2025 04:33 | 1626339 | ||
| 42003_TS_DEWT_092003.nc | 02-Jan-2025 04:35 | 1626747 | ||
| 42003_TS_DEWT_092004.nc | 02-Jan-2025 04:37 | 1625675 | ||
| 42003_TS_DEWT_092006.nc | 02-Jan-2025 04:41 | 1626255 | ||
| 42003_TS_DEWT_092007.nc | 02-Jan-2025 04:43 | 1624839 | ||
| 42003_TS_DEWT_092010.nc | 02-Jan-2025 04:48 | 1625950 | ||
| 42003_TS_DEWT_092011.nc | 02-Jan-2025 04:50 | 1626940 | ||
| 42003_TS_DEWT_092015.nc | 18-Jan-2026 16:45 | 1626942 | ||
| 42003_TS_DEWT_092016.nc | 18-Jan-2026 16:48 | 428925 | ||
| 42003_TS_DEWT_092018.nc | 18-Jan-2026 16:55 | 1473844 | ||
| 42003_TS_DEWT_092019.nc | 18-Jan-2026 17:00 | 1472591 | ||
| 42003_TS_DEWT_092021.nc | 18-Jan-2026 17:12 | 1626642 | ||
| 42003_TS_DEWT_092022.nc | 18-Jan-2026 17:15 | 1626427 | ||
| 42003_TS_DEWT_102000.nc | 02-Jan-2025 04:29 | 1626592 | ||
| 42003_TS_DEWT_102001.nc | 02-Jan-2025 04:31 | 1626961 | ||
| 42003_TS_DEWT_102002.nc | 02-Jan-2025 04:33 | 1142476 | ||
| 42003_TS_DEWT_102003.nc | 02-Jan-2025 04:35 | 1625717 | ||
| 42003_TS_DEWT_102004.nc | 02-Jan-2025 04:37 | 1626791 | ||
| 42003_TS_DEWT_102005.nc | 02-Jan-2025 04:39 | 1625837 | ||
| 42003_TS_DEWT_102006.nc | 02-Jan-2025 04:41 | 1466023 | ||
| 42003_TS_DEWT_102007.nc | 02-Jan-2025 04:43 | 1626829 | ||
| 42003_TS_DEWT_102010.nc | 02-Jan-2025 04:49 | 1473575 | ||
| 42003_TS_DEWT_102014.nc | 18-Jan-2026 16:43 | 1626529 | ||
| 42003_TS_DEWT_102015.nc | 18-Jan-2026 16:46 | 1625259 | ||
| 42003_TS_DEWT_102016.nc | 18-Jan-2026 16:49 | 1626914 | ||
| 42003_TS_DEWT_102018.nc | 18-Jan-2026 16:56 | 1626976 | ||
| 42003_TS_DEWT_102019.nc | 18-Jan-2026 17:00 | 1626614 | ||
| 42003_TS_DEWT_102020.nc | 18-Jan-2026 17:06 | 424161 | ||
| 42003_TS_DEWT_102021.nc | 18-Jan-2026 17:12 | 1472861 | ||
| 42003_TS_DEWT_112000.nc | 02-Jan-2025 04:29 | 1476142 | ||
| 42003_TS_DEWT_112001.nc | 02-Jan-2025 04:31 | 1473272 | ||
| 42003_TS_DEWT_112002.nc | 02-Jan-2025 04:34 | 1475062 | ||
| 42003_TS_DEWT_112003.nc | 02-Jan-2025 04:35 | 1471111 | ||
| 42003_TS_DEWT_112004.nc | 02-Jan-2025 04:37 | 1477055 | ||
| 42003_TS_DEWT_112005.nc | 02-Jan-2025 04:39 | 1476945 | ||
| 42003_TS_DEWT_112006.nc | 02-Jan-2025 04:41 | 1476978 | ||
| 42003_TS_DEWT_112007.nc | 02-Jan-2025 04:43 | 1475956 | ||
| 42003_TS_DEWT_112014.nc | 18-Jan-2026 16:43 | 1476423 | ||
| 42003_TS_DEWT_112015.nc | 18-Jan-2026 16:46 | 1475994 | ||
| 42003_TS_DEWT_112016.nc | 18-Jan-2026 16:49 | 1477059 | ||
| 42003_TS_DEWT_112018.nc | 18-Jan-2026 16:56 | 1476749 | ||
| 42003_TS_DEWT_112019.nc | 18-Jan-2026 17:01 | 1476917 | ||
| 42003_TS_DEWT_112020.nc | 18-Jan-2026 17:07 | 1476759 | ||
| 42003_TS_DEWT_112021.nc | 18-Jan-2026 17:13 | 1477037 | ||
| 42003_TS_DEWT_122000.nc | 02-Jan-2025 04:30 | 1477053 | ||
| 42003_TS_DEWT_122001.nc | 02-Jan-2025 04:32 | 1476923 | ||
| 42003_TS_DEWT_122002.nc | 02-Jan-2025 04:34 | 429828 | ||
| 42003_TS_DEWT_122003.nc | 02-Jan-2025 04:35 | 1476020 | ||
| 42003_TS_DEWT_122004.nc | 02-Jan-2025 04:37 | 1626659 | ||
| 42003_TS_DEWT_122005.nc | 02-Jan-2025 04:39 | 1476261 | ||
| 42003_TS_DEWT_122006.nc | 02-Jan-2025 04:41 | 1476158 | ||
| 42003_TS_DEWT_122007.nc | 02-Jan-2025 04:43 | 1476727 | ||
| 42003_TS_DEWT_122008.nc | 02-Jan-2025 04:45 | 1477136 | ||
| 42003_TS_DEWT_122010.nc | 02-Jan-2025 04:49 | 1626859 | ||
| 42003_TS_DEWT_122014.nc | 18-Jan-2026 16:43 | 1626939 | ||
| 42003_TS_DEWT_122015.nc | 18-Jan-2026 16:46 | 1625517 | ||
| 42003_TS_DEWT_122016.nc | 18-Jan-2026 16:49 | 1626895 | ||
| 42003_TS_DEWT_122018.nc | 18-Jan-2026 16:57 | 1626698 | ||
| 42003_TS_DEWT_122019.nc | 18-Jan-2026 17:01 | 1626916 | ||
| 42003_TS_DEWT_122021.nc | 18-Jan-2026 17:13 | 1626725 | ||